Date,Installs,Update checks
2022-06-07,7,1
2022-06-08,50,17
2022-06-09,49,36
2022-06-10,32,49
2022-06-11,35,61
2022-06-12,24,54
2022-06-13,26,64
2022-06-14,25,68
2022-06-15,22,70
2022-06-16,28,82
2022-06-17,55,91
2022-06-18,27,100
2022-06-19,20,109
2022-06-20,23,114
2022-06-21,18,135
2022-06-22,17,120
2022-06-23,18,131
2022-06-24,31,145
2022-06-25,20,139
2022-06-26,25,136
2022-06-27,22,146
2022-06-28,24,147
2022-06-29,19,148
2022-06-30,31,156
2022-07-01,26,165
2022-07-02,17,166
2022-07-03,19,170
2022-07-04,20,192
2022-07-05,30,202
2022-07-06,29,189
2022-07-07,24,203
2022-07-08,20,187
2022-07-09,25,181
2022-07-10,17,179
2022-07-11,21,190
2022-07-12,12,193
2022-07-13,25,204
2022-07-14,25,189
2022-07-15,29,207
2022-07-16,30,206
2022-07-17,27,215
2022-07-18,28,234
2022-07-19,27,248
2022-07-20,22,233
2022-07-21,22,255
2022-07-22,18,235
2022-07-23,25,233
2022-07-24,29,207
2022-07-25,19,279
2022-07-26,29,282
2022-07-27,32,284
2022-07-28,37,258
2022-07-29,36,276
2022-07-30,35,237
2022-07-31,31,272
2022-08-01,26,288
2022-08-02,40,313
2022-08-03,54,305
2022-08-04,51,331
2022-08-05,54,364
2022-08-06,64,328
2022-08-07,53,357
2022-08-08,54,424
2022-08-09,62,401
2022-08-10,65,423
2022-08-11,57,451
2022-08-12,61,462
2022-08-13,64,444
2022-08-14,62,448
2022-08-15,68,510
2022-08-16,83,506
2022-08-17,76,535
2022-08-18,77,543
2022-08-19,80,578
2022-08-20,68,533
2022-08-21,82,569
2022-08-22,66,605
2022-08-23,75,602
2022-08-24,73,631
2022-08-25,78,628
2022-08-26,75,611
2022-08-27,80,619
2022-08-28,62,659
2022-08-29,64,694
2022-08-30,59,703
2022-08-31,70,690
2022-09-01,97,745
2022-09-02,75,712
2022-09-03,68,702
2022-09-04,67,735
2022-09-05,56,786
2022-09-06,58,752
2022-09-07,64,801
2022-09-08,91,802
2022-09-09,70,832
2022-09-10,95,793
2022-09-11,73,839
2022-09-12,83,899
2022-09-13,77,905
2022-09-14,91,938
2022-09-15,85,934
2022-09-16,89,923
2022-09-17,93,917
2022-09-18,95,927
2022-09-19,90,1021
2022-09-20,91,1039
2022-09-21,91,1041
2022-09-22,90,1044
2022-09-23,109,1047
2022-09-24,105,1008
2022-09-25,101,1077
2022-09-26,94,1131
2022-09-27,82,1122
2022-09-28,87,1174
2022-09-29,96,1185
2022-09-30,113,1166
2022-10-01,104,1132
2022-10-02,98,1119
2022-10-03,101,1247
2022-10-04,88,1249
2022-10-05,92,1268
2022-10-06,106,1310
2022-10-07,112,1328
2022-10-08,123,1237
2022-10-09,132,1272
2022-10-10,124,1352
2022-10-11,104,1397
2022-10-12,86,1439
2022-10-13,99,1438
2022-10-14,108,1449
2022-10-15,136,1391
2022-10-16,110,1435
2022-10-17,89,1515
2022-10-18,92,1538
2022-10-19,98,1571
2022-10-20,77,1545
2022-10-21,74,1560
2022-10-22,90,1427
2022-10-23,100,1470
2022-10-24,83,1585
2022-10-25,90,1585
2022-10-26,93,1587
2022-10-27,88,1610
2022-10-28,80,1630
2022-10-29,112,1472
2022-10-30,97,1525
2022-10-31,88,1653
2022-11-01,85,1666
2022-11-02,85,1732
2022-11-03,76,1761
2022-11-04,84,1685
2022-11-05,109,1641
2022-11-06,107,1618
2022-11-07,100,1786
2022-11-08,109,1844
2022-11-09,101,1880
2022-11-10,96,1883
2022-11-11,85,1797
2022-11-12,76,1702
2022-11-13,102,1764
2022-11-14,83,1852
2022-11-15,86,1929
2022-11-16,83,1895
2022-11-17,88,1586
2022-11-18,97,1686
2022-11-19,97,1564
2022-11-20,85,1639
2022-11-21,86,1759
2022-11-22,85,1883
2022-11-23,92,1847
2022-11-24,76,1790
2022-11-25,107,1769
2022-11-26,97,1656
2022-11-27,114,1730
2022-11-28,86,1820
2022-11-29,78,1852
2022-11-30,109,1843
2022-12-01,124,1825
2022-12-02,110,1868
2022-12-03,137,1738
2022-12-04,117,1809
2022-12-05,86,1848
2022-12-06,81,1878
2022-12-07,99,1983
2022-12-08,98,1968
2022-12-09,86,1871
2022-12-10,109,1841
2022-12-11,123,1829
2022-12-12,111,1987
2022-12-13,103,1863
2022-12-14,94,1790
2022-12-15,85,2021
2022-12-16,85,1868
2022-12-17,99,1628
2022-12-18,97,1736
2022-12-19,95,1994
2022-12-20,85,1868
2022-12-21,93,1776
2022-12-22,96,1854
2022-12-23,109,1824
2022-12-24,84,1660
2022-12-25,99,1718
2022-12-26,87,1840
2022-12-27,101,1971
2022-12-28,105,1946
2022-12-29,174,1928
2022-12-30,153,2050
2022-12-31,120,1646
2023-01-01,102,1778
2023-01-02,110,2220
2023-01-03,65,2401
2023-01-04,73,2377
2023-01-05,95,2333
2023-01-06,109,2406
2023-01-07,90,2201
2023-01-08,95,2312
2023-01-09,83,2498
2023-01-10,79,2543
2023-01-11,80,2463
2023-01-12,109,2499
2023-01-13,114,2511
2023-01-14,92,2305
2023-01-15,117,2393
2023-01-16,86,2607
2023-01-17,87,2611
2023-01-18,96,2588
2023-01-19,82,2575
2023-01-20,79,2570
2023-01-21,102,2339
2023-01-22,113,2419
2023-01-23,91,2567
2023-01-24,100,2599
2023-01-25,86,2591
2023-01-26,90,2619
2023-01-27,92,2666
2023-01-28,87,2497
2023-01-29,98,2521
2023-01-30,108,2755
2023-01-31,90,2789
2023-02-01,98,2862
2023-02-02,94,2845
2023-02-03,89,2783
2023-02-04,88,2645
2023-02-05,84,2598
2023-02-06,85,2856
2023-02-07,90,2815
2023-02-08,76,2914
2023-02-09,83,2886
2023-02-10,90,2823
2023-02-11,99,2636
2023-02-12,110,2703
2023-02-13,84,2946
2023-02-14,97,2920
2023-02-15,81,2898
2023-02-16,103,2907
2023-02-17,98,2919
2023-02-18,117,2719
2023-02-19,99,2796
2023-02-20,98,2985
2023-02-21,107,2932
2023-02-22,98,2979
2023-02-23,102,3031
2023-02-24,109,2955
2023-02-25,147,2834
2023-02-26,120,2809
2023-02-27,110,3140
2023-02-28,173,3114
2023-03-01,168,3110
2023-03-02,169,3173
2023-03-03,162,3093
2023-03-04,157,2906
2023-03-05,119,3057
2023-03-06,101,3251
2023-03-07,97,3273
2023-03-08,95,3185
2023-03-09,106,3261
2023-03-10,114,3185
2023-03-11,94,3014
2023-03-12,117,3066
2023-03-13,106,3382
2023-03-14,116,3304
2023-03-15,91,3288
2023-03-16,109,3342
2023-03-17,80,3286
2023-03-18,112,2983
2023-03-19,136,3087
2023-03-20,116,3467
2023-03-21,119,3402
2023-03-22,127,3336
2023-03-23,102,3410
2023-03-24,106,3310
2023-03-25,119,3127
2023-03-26,98,3198
2023-03-27,101,3576
2023-03-28,109,3526
2023-03-29,99,3411
2023-03-30,95,3441
2023-03-31,93,3494
2023-04-01,123,3276
2023-04-02,100,3253
2023-04-03,105,3534
2023-04-04,83,3629
2023-04-05,119,3512
2023-04-06,104,3439
2023-04-07,97,3320
2023-04-08,99,3185
2023-04-09,114,3215
2023-04-10,112,3537
2023-04-11,95,3650
2023-04-12,95,3660
2023-04-13,91,3683
2023-04-14,107,3579
2023-04-15,95,3321
2023-04-16,82,3322
2023-04-17,103,3743
2023-04-18,109,3719
2023-04-19,116,3692
2023-04-20,104,3648
2023-04-21,101,3521
2023-04-22,120,3305
2023-04-23,123,3421
2023-04-24,108,3718
2023-04-25,97,3763
2023-04-26,108,3758
2023-04-27,106,3685
2023-04-28,103,3620
2023-04-29,90,3338
2023-04-30,106,3411
2023-05-01,109,3604
2023-05-02,96,3761
2023-05-03,91,3779
2023-05-04,118,3791
2023-05-05,106,3779
2023-05-06,123,3463
2023-05-07,119,3595
2023-05-08,107,3924
2023-05-09,123,3902
2023-05-10,102,3929
2023-05-11,101,3881
2023-05-12,95,3884
2023-05-13,108,3543
2023-05-14,100,3616
2023-05-15,106,4024
2023-05-16,99,3890
2023-05-17,94,3980
2023-05-18,102,3951
2023-05-19,121,3849
2023-05-20,115,3593
2023-05-21,98,3587
2023-05-22,101,4000
2023-05-23,96,4055
2023-05-24,108,3990
2023-05-25,117,4048
2023-05-26,92,3859
2023-05-27,112,3611
2023-05-28,129,3694
2023-05-29,110,3999
2023-05-30,96,4100
2023-05-31,106,4005
2023-06-01,98,4061
2023-06-02,129,3884
2023-06-03,105,3691
2023-06-04,122,3668
2023-06-05,78,4121
2023-06-06,101,4153
2023-06-07,89,4093
2023-06-08,103,4040
2023-06-09,100,3951
2023-06-10,102,3732
2023-06-11,106,3776
2023-06-12,103,4190
2023-06-13,104,4168
2023-06-14,88,4120
2023-06-15,109,4127
2023-06-16,140,3955
2023-06-17,114,3770
2023-06-18,126,3820
2023-06-19,98,4204
2023-06-20,103,4112
2023-06-21,105,4143
2023-06-22,120,4031
2023-06-23,97,3894
2023-06-24,113,3657
2023-06-25,130,3823
2023-06-26,133,4115
2023-06-27,114,4110
2023-06-28,127,4088
2023-06-29,108,4038
2023-06-30,167,4057
2023-07-01,123,3687
2023-07-02,114,3758
2023-07-03,112,4134
2023-07-04,117,4098
2023-07-05,109,4127
2023-07-06,114,4094
2023-07-07,120,4011
2023-07-08,126,3756
2023-07-09,145,3904
2023-07-10,116,4095
2023-07-11,102,4219
2023-07-12,106,4065
2023-07-13,103,4147
2023-07-14,134,4012
2023-07-15,105,3733
2023-07-16,104,3761
2023-07-17,111,4168
2023-07-18,104,4167
2023-07-19,120,4022
2023-07-20,120,4103
2023-07-21,112,4035
2023-07-22,110,3682
2023-07-23,101,3814
2023-07-24,93,4116
2023-07-25,141,4195
2023-07-26,103,4082
2023-07-27,125,4216
2023-07-28,129,4025
2023-07-29,129,3730
2023-07-30,119,3826
2023-07-31,114,4266
2023-08-01,97,4138
2023-08-02,105,4225
2023-08-03,99,4139
2023-08-04,103,4059
2023-08-05,95,3752
2023-08-06,123,3900
2023-08-07,112,4105
2023-08-08,116,4218
2023-08-09,94,4211
2023-08-10,126,4165
2023-08-11,112,4125
2023-08-12,135,3828
2023-08-13,116,3779
2023-08-14,126,4160
2023-08-15,138,4164
2023-08-16,86,4296
2023-08-17,94,4180
2023-08-18,122,4209
2023-08-19,96,3901
2023-08-20,115,3952
2023-08-21,166,4358
2023-08-22,146,4348
2023-08-23,152,4258
2023-08-24,35,1247
2023-08-25,115,4541
2023-08-26,118,3992
2023-08-27,116,4056
2023-08-28,97,4371
2023-08-29,115,4424
2023-08-30,101,4503
2023-08-31,103,4451
2023-09-01,100,4389
2023-09-02,96,4062
2023-09-03,103,4122
2023-09-04,88,4474
2023-09-05,94,4612
2023-09-06,108,4486
2023-09-07,92,4402
2023-09-08,95,4478
2023-09-09,98,4063
2023-09-10,96,4192
2023-09-11,77,4636
2023-09-12,91,4523
2023-09-13,88,4570
2023-09-14,101,4515
2023-09-15,103,4474
2023-09-16,106,4176
2023-09-17,121,4288
2023-09-18,76,4562
2023-09-19,93,4620
2023-09-20,81,4548
2023-09-21,96,4678
2023-09-22,90,4490
2023-09-23,81,4262
2023-09-24,99,4296
2023-09-25,79,4665
2023-09-26,102,4624
2023-09-27,79,4686
2023-09-28,91,4598
2023-09-29,107,4403
2023-09-30,103,4122
2023-10-01,85,4189
2023-10-02,105,4585
2023-10-03,84,4583
2023-10-04,79,4613
2023-10-05,87,4589
2023-10-06,118,4541
2023-10-07,93,4317
2023-10-08,80,4368
2023-10-09,64,4603
2023-10-10,73,4757
2023-10-11,76,4779
2023-10-12,74,4750
2023-10-13,82,4553
2023-10-14,72,4164
2023-10-15,88,4283
2023-10-16,63,4727
2023-10-17,75,4768
2023-10-18,73,4721
2023-10-19,86,4716
2023-10-20,77,4605
2023-10-21,80,4317
2023-10-22,77,4321
2023-10-23,91,4723
2023-10-24,89,4659
2023-10-25,75,4669
2023-10-26,93,4616
2023-10-27,106,4599
2023-10-28,84,4186
2023-10-29,73,4318
2023-10-30,90,4714
2023-10-31,85,4589
2023-11-01,87,4714
2023-11-02,95,4863
2023-11-03,105,4635
2023-11-04,117,4368
2023-11-05,78,4443
2023-11-06,93,4819
2023-11-07,87,4726
2023-11-08,72,4736
2023-11-09,74,4761
2023-11-10,85,4613
2023-11-11,94,4274
2023-11-12,87,4330
2023-11-13,75,4832
2023-11-14,77,4878
2023-11-15,62,4819
2023-11-16,73,4811
2023-11-17,74,4465
2023-11-18,93,4494
2023-11-19,86,4474
2023-11-20,77,4879
2023-11-21,81,4794
2023-11-22,76,4794
2023-11-23,94,4675
2023-11-24,66,4697
2023-11-25,90,4381
2023-11-26,81,4415
2023-11-27,72,4836
2023-11-28,74,4863
2023-11-29,85,4818
2023-11-30,73,4861
2023-12-01,76,4755
2023-12-02,83,4440
2023-12-03,91,4369
2023-12-04,78,4810
2023-12-05,75,4264
2023-12-06,61,4169
2023-12-07,92,4039
2023-12-08,75,4407
2023-12-09,82,3722
2023-12-10,73,3706
2023-12-11,88,4057
2023-12-12,88,3975
2023-12-13,66,3905
2023-12-14,79,3882
2023-12-15,93,3687
2023-12-16,85,3476
2023-12-17,76,3566
2023-12-18,97,3763
2023-12-19,51,3816
2023-12-20,51,3731
2023-12-21,50,3697
2023-12-22,53,3608
2023-12-23,44,3332
2023-12-24,56,3215
2023-12-25,62,3266
2023-12-26,67,3855
2023-12-27,68,4017
2023-12-28,64,3969
2023-12-29,66,3748
2023-12-30,57,3569
2023-12-31,47,3340
2024-01-01,55,3523
2024-01-02,66,3956
2024-01-03,63,4020
2024-01-04,44,3956
2024-01-05,57,3968
2024-01-06,63,3756
2024-01-07,82,3721
2024-01-08,53,4117
2024-01-09,51,4117
2024-01-10,52,4108
2024-01-11,55,4087
2024-01-12,65,4021
2024-01-13,65,3771
2024-01-14,56,3814
2024-01-15,55,4148
2024-01-16,61,4137
2024-01-17,58,4163
2024-01-18,47,4104
2024-01-19,53,4163
2024-01-20,54,3764
2024-01-21,68,3844
2024-01-22,54,4171
2024-01-23,64,4306
2024-01-24,65,4261
2024-01-25,69,4317
2024-01-26,78,4165
2024-01-27,56,3951
2024-01-28,59,3935
2024-01-29,71,4393
2024-01-30,65,4336
2024-01-31,49,4327
2024-02-01,52,4290
2024-02-02,39,4114
2024-02-03,71,3911
2024-02-04,64,4008
2024-02-05,60,4239
2024-02-06,57,4221
2024-02-07,56,4161
2024-02-08,57,4187
2024-02-09,49,3941
2024-02-10,68,3764
2024-02-11,68,3769
2024-02-12,62,4071
2024-02-13,62,4100
2024-02-14,57,4045
2024-02-15,56,4205
2024-02-16,47,4108
2024-02-17,56,3893
2024-02-18,62,4009
2024-02-19,47,4316
2024-02-20,54,4319
2024-02-21,70,4319
2024-02-22,51,4328
2024-02-23,65,4285
2024-02-24,53,3956
2024-02-25,77,4068
2024-02-26,50,4421
2024-02-27,49,4450
2024-02-28,52,4377
2024-02-29,50,4476
2024-03-01,52,4374
2024-03-02,67,4136
2024-03-03,56,4069
2024-03-04,57,4457
2024-03-05,64,4501
2024-03-06,45,4471
2024-03-07,55,4447
2024-03-08,59,4305
2024-03-09,71,4186
2024-03-10,58,4170
2024-03-11,57,4511
2024-03-12,53,4459
2024-03-13,65,4543
2024-03-14,45,4467
2024-03-15,53,4358
2024-03-16,53,4109
2024-03-17,61,4122
2024-03-18,27,4526
2024-03-19,49,4482
2024-03-20,57,4593
2024-03-21,51,4521
2024-03-22,62,4400
2024-03-23,44,4174
2024-03-24,54,4222
2024-03-25,36,4491
2024-03-26,35,4478
2024-03-27,47,4485
2024-03-28,36,4456
2024-03-29,16,1659
